Retour au catalogue

DMSP 5D-2 F9 DEB

ActifSSO
NORAD 39046·DEBRIS·🇺🇸 United States

Lancé Feb 3, 1988 depuis Vandenberg Space Force Base

Loading…

Prochains Passages (prochaines 24 heures)

TLE

FraisSource: Space-Track

Époque: Sep 14, 2026, 11:05 UTC

1 39046U 88006M   26257.46242826  .00001537  00000-0  62495-3 0  9995
2 39046  98.6368  77.0308 0069941  50.2757 339.4842 14.27650330708957

Suivez DMSP 5D-2 F9 DEB en temps réel avec AllMySat

Download on the App Store